Hourly Data Report for March 26, 2017

PORT ALBERNI (AUT)
BRITISH COLUMBIA

49°18'59.700" N
124°55'36.600" W
76.20 m
1036B06
71475
WQC

Download Data

Hourly Data (March 2017)
Hourly Data Report for March 26, 2017
TIME
LST
Temp Definition
°C
Dew Point Definition
°C
Rel Hum Definition
%
Precip. Amount Definition
mm

Wind Dir Definition
10's deg

Wind Spd Definition
km/h
Visibility Definition
km
Stn Press Definition
kPa
Hmdx Definition


Wind Chill Definition


Weather Definition


00:00 3.3 2.6 96 0.0   0   100.58     LegendNANA
01:00 3.4 2.9 96 0.0 32 1   100.51     LegendNANA
02:00 2.9 2.4 97 0.0 23 4   100.38     LegendNANA
03:00 3.1 2.7 97 0.0 34 1   100.27     LegendNANA
04:00 2.7 2.3 97 0.0 22 1   100.12     LegendNANA
05:00 3.1 2.8 98 0.0 34 3   100.04     LegendNANA
06:00 2.9 2.5 97 0.2 12 3   99.98     LegendNANA
07:00 2.9 2.6 98 0.5 0 1   99.91     LegendNANA
08:00 3.2 2.7 97 0.5 32 1   99.84     LegendNANA
09:00 3.5 3.0 96 0.8 31 5   99.78     LegendNANA
10:00 4.0 3.2 94 0.7 30 6   99.75     LegendNANA
11:00 4.1 3.3 95 1.0 27 5   99.71     LegendNANA
12:00 4.0 3.3 95 2.0 26 6   99.70     LegendNANA
13:00 4.4 3.3 93 2.1 30 8   99.67     LegendNANA
14:00 4.4 3.5 94 1.0 31 3   99.66     LegendNANA
15:00 4.2 3.3 94 0.8 25 9   99.64     LegendNANA
16:00 4.2 3.5 95 0.9 25 5   99.65     LegendNANA
17:00 4.8 4.1 95 0.9 29 3   99.66     LegendNANA
18:00 4.2 3.5 95 0.0 26 3   99.66     LegendNANA
19:00 3.4 2.8 96 0.3 26 9   99.70     LegendNANA
20:00 3.4 2.8 96 0.0 29 4   99.74     LegendNANA
21:00 3.4 2.9 96 0.1 27 3   99.80     LegendNANA
22:00 3.4 3.0 97 0.1 26 3   99.87     LegendNANA
23:00 3.3 2.9 97 2.2 24 3   99.93     LegendNANA

Notes on Data Quality.

Legend

  • E = Estimated
  • M = Missing
  • NA = Not Available*
  • [empty] = Indicates an unobserved value
Date modified: